To NAV CANADA Home Page Login to a new session Search on AWWS site Feedback and Comments Disclaimer Vers la page française équivalente Tips FAQ What's new on the site To the Forecasts and Observations / NOTAM section To "File a Flight Plan" website Publications and other links Update of the User's profile FIC Telephone Numbers My Weather Data Folder Route Weather Data Regional Weather Data Local Weather Data To the Forecasts and Observations / NOTAM section
Request Generated 08/27/2016 at 02:48:40 UTC . Weather information available at that time is displayed.

METAR/TAF

QUAQTAQ/QC    

LWIS CYHA 270200Z AUTO 17016G21KT 07/04 A2985=
LWIS CYHA 270100Z AUTO 16018KT 07/04 A2984=
LWIS CYHA 270000Z AUTO 16017KT 07/05 A2983=

*** REMARK        : Forecast period has ended; this was the last TAF issued
*** REMARQUE : La période de prévision est échue; ceci était le dernier TAF qui a été émis
TAF AMD CYHA 262034Z 2614/2621 FCST CNCLD DUE NO OBS
RMK NXT FCST WILL BE ISSUED AT 271345Z=
Your time UTC time
Weather data provided by Environment Canada and NAV CANADA